BREEZE-KM R/B, 39486

Orbit data source: Space-Track

BREEZE-KM R/B, 39486 is space debris in LEO originally from a launch on Wed, 25 Dec 2013 UTC launched from the Plesetsk Missile And Space Complex (PKMTR). Debris objects in space refer to the collection of defunct objects orbiting the Earth. Examples of debris include non-operational satellites, rocket bodies, and fragments generated from explosions, collisions, or faulty payload assembly.

Loading next visibility...
Identifier
39486, 2013-076D
Orbit
LEO
Country
Flag of CISCIS
Related business
Manufacturer
Khrunichev
Mission
Spacecraft
Bus & Motor
BRIZ, S5.92
Mass
2,370 kg wet, 2,370 kg dry
Launch date (UTC)
2013-12-25 (12 years ago)
Launch vehicle
Unknown
Launch site
Plesetsk Missile And Space Complex (PKMTR)
Object type
Payload
Rocket body
Debris
Shape & HBR
Hex Cyl + 1 Rod, 2.0 m
Radar Cross Section
10.190 m², Large (>1 m²)

Expand to show TLE details & history
Last TLE update: 8 hours ago

TLE from 8 hours ago
0 BREEZE-KM R/B
1 39486U 13076D   26127.10984012  .00000019  00000-0  19435-4 0  9996
2 39486  82.4830 334.7959 0233948  98.5397 264.2291 12.82990717578986
Epoch: 2026-05-07T02:38Z
TLE epoch observation values (Epoch: 2026-05-07T02:38:10.186Z)
Latitude
0.00007°
Longitude
70.29278°
Altitude
1,354.524 km
Speed
7.171 km/s
True Right ascension
22h 19m 11s
True Declination
0° 00' 00"
Sunlit
Object was in daylight at epoch
Visualization orbit readout
Latitude
Unknown
Longitude
Unknown
Altitude
Unknown
Speed
Unknown
Apparent Right ascension
Unknown
Apparent Declination
Unknown
Sunlit
N/A
Visualization observer readout
Local Sidereal Time
18:15:26
Azimuth
Unknown
Elevation
Unknown
Doppler factor
Unknown
Orbital elements
Apogee altitude
1,507.016 km
Perigee altitude
1,146.507 km
Semi-major axis
7,704.899 km
Eccentricity
0.02339
Inclination
82.483°
RAAN
334.7959°
Arg. of periapsis
98.5397°
True anomaly
261.57061°
Mean anomaly
264.2291°
Eccentric anomaly
262.89896°
Mean motion
3.20917 °/min
Orbital period
112.18 mins
BSTAR
0.000019435
Loading maneuver chart data...
Computing Atmospheric mass density...
Loading historical data...
Loading historical data...
Loading historical data...
Loading historical data...
Loading historical data...
Loading historical data...
Loading historical data...

Documentation

Showing up to 5 results
|